Вернуться в каталог

CZ-6A DEB

АктивенSSO
NORAD 54893·DEBRIS·🇨🇳 China

Запущен Nov 11, 2022 с Taiyuan Satellite Launch Center

Loading…

Ближайшие Пролёты (ближайшие 24 часа)

TLE

СвежийSource: Space-Track

Эпоха: Sep 14, 2026, 01:30 UTC

1 54893U 22151QE  26257.06292244  .00001452  00000-0  40999-3 0  9997
2 54893  98.6127 302.5192 0067737  20.0906 340.2928 14.45911426199041

Отслеживайте CZ-6A DEB в реальном времени с AllMySat

Download on the App Store